Погода в Куликове

Россия / Республика Карелия     61°11′23″N   29°45′07″E
темп.,
°C
ветер,
м/с
пор.,
м/с
влажн.,
%
обл.,
%
осадки,
мм/ч
давл.,
гПа
погр.,
м
10 апреля, сб
сб1000:00+2ююз81794100 1.4 10021370
03:00+3ююз81687100 1.4 10021152
06:00+2ююз71594100 0.1 10031161
09:00+3ююз7148093 0.2 10041425
12:00+5юз71571100 0.3 10051530
15:00+5юз7156538 0.3 10061745
18:00+4юз7137353 0.1 10071231
21:00+1юз5128121 0.1 1010611
11 апреля, вс
вс1100:000юз513885 0.0 1012528
03:000юз514865 0.0 1015510
06:000юз615865 0.0 1016497
09:00+3юз514765 0.0 1019629
12:00+7зюз59575 0.0 10221161
15:00+8зюз57475 0.0 10241750
18:00+6ююз486282 0.0 1026475
21:00+3юз2776100 0.0 1027179
12 апреля, пн
пн1200:00+3ю2274100 0.0 102832
03:00+2вюв237591 0.0 102848
06:00+2вюв2876100 0.4 1026192
09:00+2вюв4885100 2.3 1024336
12:00+10ю3872100 0.0 1022591
15:00+14ююз41158100 0.0 10211250
18:00+12ююз3761100 0.0 1020207
21:00+8ююв2376100 0.0 102041
13 апреля, вт
вт1300:00+7ю21083100 0.0 1019207
03:00+6ю2587100 0.0 101881
06:00+5ю2491100 0.0 101767
09:00+7ююз2580100 0.0 1017177
12:00+9юз31179100 0.0 1017790
15:00+10юз487982 0.0 1017661
18:00+8юз3687100 0.0 1017402
21:00+6юз2790100 0.0 1018263
14 апреля, ср
ср1400:00+4юз2580100 0.0 1017170
03:00+4зюз257997 0.0 1017146
06:00+3з2490100 0.1 1017228
09:00+3з2596100 0.1 1017282
12:00+6з3561100 0.0 1017793
15:00+7з465297 0.0 10171061
18:00+6зсз475670 0.0 10181071
21:00+3сз386884 0.0 1019598